Weather History for KSYN - November, 2012

Change the Weather History Date:

Tuesday, November 20, 2012

  Actual Average (KLVN) Record (KLVN)
Temperature  
Mean Temperature 40 °F -  
Max Temperature 53 °F 37 °F 60 °F (1982)
Min Temperature 27 °F 23 °F -2 °F (2014)
Degree Days  
Heating Degree Days 25    
Moisture  
Dew Point 32 °F    
Average Humidity 79    
Maximum Humidity 95    
Minimum Humidity 47    
Precipitation  
Precipitation 0.00 in - - ()
Sea Level Pressure  
Sea Level Pressure 30.10 in    
Wind  
Wind Speed 3 mph (SW)    
Max Wind Speed 8 mph    
Max Gust Speed -    
Visibility 7 miles    
Events Fog    
Averages and records for this station are not official NWS values.
T = Trace of Precipitation, MM = Missing Value Source: NWS Daily Summary

Daily Weather History Graph

Daily Weather History Graph

Search for Another Location

Airport or City:

Trip Planner

Search our weather history database for the weather conditions in past years. The results will help you decide how hot, cold, wet, or windy it might be!

Date:

Astronomy

Nov. 20, 2012 Rise Set
Actual Time 7:15 AM CST 4:39 PM CST
Civil Twilight 6:43 AM CST 5:11 PM CST
Nautical Twilight 6:07 AM CST 5:47 PM CST
Astronomical Twilight 5:33 AM CST 6:21 PM CST
Moon 12:41 PM CST (11/20) No Moon Set
Length of Visible Light 10h 28m
Length of Day
9h 24m
First Quarter, 51% of the Moon is Illuminated
Nov 20
First Quarter
Nov 28
Full
Dec 6
Last Quarter
Dec 13
New
Dec 19
First Quarter

Hourly Weather History & Observations

Time (CST) Temp. Windchill Dew Point Humidity Pressure Visibility Wind Dir Wind Speed Gust Speed Precip Events Conditions
12:12 AM 33.6 °F 30.6 °F 31.6 °F 92% 30.06 in 5.0 mi SSW 3.5 mph - N/A   Clear
12:33 AM 33.1 °F 30.0 °F 31.3 °F 93% 30.06 in 4.0 mi South 3.5 mph - N/A   Clear
12:52 AM 33.6 °F 30.6 °F 31.8 °F 93% 30.06 in 4.0 mi South 3.5 mph - N/A   Clear
1:12 AM 33.1 °F 30.0 °F 31.6 °F 94% 30.05 in 4.0 mi SSW 3.5 mph - N/A   Clear
1:33 AM 32.0 °F 28.7 °F 30.2 °F 93% 30.06 in 4.0 mi South 3.5 mph - N/A   Clear
1:52 AM 32.0 °F 27.5 °F 30.7 °F 95% 30.06 in 5.0 mi SSW 4.6 mph - N/A   Clear
2:12 AM 33.8 °F 30.8 °F 32.0 °F 93% 30.07 in 5.0 mi SSW 3.5 mph - N/A   Clear
2:32 AM 33.8 °F 30.8 °F 32.0 °F 93% 30.07 in 5.0 mi South 3.5 mph - N/A   Clear
2:52 AM 32.0 °F 28.7 °F 30.2 °F 93% 30.08 in 4.0 mi SSW 3.5 mph - N/A   Clear
3:12 AM 32.9 °F 29.8 °F 31.5 °F 94% 30.08 in 4.0 mi SSW 3.5 mph - N/A   Clear
3:32 AM 32.9 °F - 31.3 °F 94% 30.09 in 4.0 mi Calm Calm - N/A   Clear
3:52 AM 34.5 °F - 32.4 °F 92% 30.10 in 5.0 mi Calm Calm - N/A   Clear
4:12 AM 34.3 °F 31.4 °F 32.4 °F 92% 30.10 in 5.0 mi NW 3.5 mph - N/A   Clear
4:33 AM 34.7 °F - 32.4 °F 91% 30.11 in 5.0 mi Calm Calm - N/A   Clear
4:52 AM 33.3 °F - 30.9 °F 91% 30.11 in 5.0 mi Calm Calm - N/A   Clear
5:12 AM 32.2 °F - 30.6 °F 94% 30.13 in 4.0 mi Calm Calm - N/A   Clear
5:32 AM 31.8 °F - 30.0 °F 93% 30.14 in 4.0 mi Calm Calm - N/A   Clear
5:52 AM 32.2 °F 27.7 °F 30.4 °F 93% 30.12 in 4.0 mi SSE 4.6 mph - N/A   Clear
6:12 AM 32.0 °F 28.7 °F 30.4 °F 94% 30.11 in 3.0 mi SSW 3.5 mph - N/A   Clear
6:32 AM 32.0 °F - 30.2 °F 93% 30.11 in 2.0 mi Calm Calm - N/A   Clear
6:52 AM 27.9 °F 22.6 °F 25.9 °F 92% 30.12 in 2.5 mi SW 4.6 mph - N/A   Clear
7:12 AM 29.3 °F 25.6 °F 27.7 °F 94% 30.13 in 1.8 mi SW 3.5 mph - N/A   Mist
7:32 AM 29.1 °F - 27.5 °F 94% 30.13 in 0.2 mi Calm Calm - N/A Fog Light Freezing Fog
7:52 AM 28.4 °F - 26.8 °F 94% 30.14 in 0.2 mi Calm Calm - N/A Fog Light Freezing Fog
8:12 AM 30.2 °F 26.7 °F 28.6 °F 94% 30.15 in 1.0 mi South 3.5 mph - N/A   Mist
8:32 AM 31.8 °F 28.5 °F 30.2 °F 94% 30.15 in 1.8 mi SSW 3.5 mph - N/A   Mist
8:52 AM 33.8 °F - 32.2 °F 94% 30.15 in 3.0 mi Calm Calm - N/A   Clear
9:12 AM 36.1 °F - 34.2 °F 93% 30.15 in 4.0 mi Calm Calm - N/A   Clear
9:32 AM 39.0 °F - 35.6 °F 88% 30.15 in 5.0 mi Calm Calm - N/A   Clear
9:52 AM 40.1 °F - 35.1 °F 82% 30.16 in 7.0 mi Calm Calm - N/A   Clear
10:12 AM 41.0 °F - 35.8 °F 82% 30.15 in 7.0 mi Calm Calm - N/A   Clear
10:33 AM 42.4 °F - 36.3 °F 79% 30.16 in 7.0 mi Calm Calm - N/A   Clear
10:52 AM 43.7 °F - 36.7 °F 76% 30.15 in 7.0 mi Calm Calm - N/A   Clear
11:12 AM 45.0 °F 43.5 °F 37.0 °F 74% 30.15 in 7.0 mi West 3.5 mph - N/A   Clear
11:32 AM 46.8 °F - 37.4 °F 70% 30.14 in 10.0 mi West 5.8 mph - N/A   Clear
11:52 AM 48.4 °F - 37.8 °F 67% 30.14 in 10.0 mi West 4.6 mph - N/A   Clear
12:12 PM 49.5 °F - 37.8 °F 64% 30.13 in 10.0 mi WNW 5.8 mph - N/A   Clear
12:32 PM 50.4 °F - 37.8 °F 62% 30.13 in 10.0 mi West 4.6 mph - N/A   Clear
1:12 PM 52.3 °F - 37.6 °F 57% 30.12 in 10.0 mi NW 6.9 mph - N/A   Clear
1:32 PM 52.7 °F - 36.7 °F 55% 30.12 in 10.0 mi NW 3.5 mph - N/A   Clear
1:53 PM 53.1 °F - 36.9 °F 54% 30.11 in 10.0 mi Calm Calm - N/A   Clear
2:12 PM 52.9 °F - 36.0 °F 53% 30.11 in 10.0 mi Calm Calm - N/A   Clear
2:32 PM 53.6 °F - 35.1 °F 50% 30.11 in 10.0 mi Calm Calm - N/A   Clear
2:53 PM 53.6 °F - 34.9 °F 49% 30.11 in 10.0 mi West 3.5 mph - N/A   Clear
3:12 PM 53.6 °F - 34.0 °F 47% 30.11 in 10.0 mi Calm Calm - N/A   Clear
3:32 PM 52.9 °F - 34.5 °F 50% 30.11 in 10.0 mi Calm Calm - N/A   Clear
3:53 PM 51.4 °F - 34.3 °F 52% 30.12 in 10.0 mi Calm Calm - N/A   Clear
4:12 PM 51.6 °F - 34.2 °F 51% 30.11 in 10.0 mi Calm Calm - N/A   Clear
4:32 PM 49.1 °F - 34.5 °F 57% 30.10 in 10.0 mi Calm Calm - N/A   Clear
4:53 PM 47.1 °F - 34.9 °F 62% 30.11 in 10.0 mi Calm Calm - N/A   Clear
5:12 PM 41.7 °F - 32.9 °F 71% 30.11 in 10.0 mi Calm Calm - N/A   Clear
5:32 PM 39.6 °F - 32.2 °F 75% 30.10 in 10.0 mi Calm Calm - N/A   Clear
5:52 PM 36.3 °F 32.5 °F 29.7 °F 77% 30.10 in 10.0 mi SSW 4.6 mph - N/A   Clear
6:12 PM 37.8 °F 34.2 °F 30.9 °F 76% 30.11 in 10.0 mi SW 4.6 mph - N/A   Clear
6:33 PM 34.7 °F 29.6 °F 29.3 °F 81% 30.11 in 10.0 mi SW 5.8 mph - N/A   Clear
6:52 PM 34.0 °F 31.0 °F 28.6 °F 81% 30.11 in 10.0 mi South 3.5 mph - N/A   Clear
7:12 PM 35.4 °F - 30.2 °F 81% 30.09 in 10.0 mi Calm Calm - N/A   Clear
7:33 PM 34.5 °F 31.6 °F 29.7 °F 82% 30.08 in 10.0 mi SSW 3.5 mph - N/A   Clear
7:52 PM 34.0 °F 29.8 °F 30.2 °F 86% 30.10 in 10.0 mi WSW 4.6 mph - N/A   Clear
8:13 PM 34.7 °F - 29.5 °F 81% 30.09 in 10.0 mi Calm Calm - N/A   Clear
8:32 PM 32.0 °F - 28.2 °F 86% 30.10 in 10.0 mi Calm Calm - N/A   Clear
8:52 PM 32.0 °F - 28.0 °F 85% 30.08 in 10.0 mi Calm Calm - N/A   Clear
9:13 PM 34.0 °F 31.0 °F 30.2 °F 86% 30.08 in 10.0 mi SSW 3.5 mph - N/A   Clear
9:32 PM 35.8 °F 31.9 °F 31.1 °F 83% 30.07 in 10.0 mi South 4.6 mph - N/A   Clear
9:52 PM 38.5 °F 34.1 °F 32.0 °F 78% 30.07 in 10.0 mi SSW 5.8 mph - N/A   Clear
10:13 PM 41.2 °F 36.0 °F 33.6 °F 74% 30.07 in 10.0 mi South 8.1 mph - N/A   Clear
10:32 PM 41.5 °F 36.4 °F 33.4 °F 73% 30.07 in 10.0 mi South 8.1 mph - N/A   Clear
10:52 PM 41.7 °F 37.3 °F 33.1 °F 71% 30.06 in 10.0 mi South 6.9 mph - N/A   Clear
11:12 PM 40.8 °F 36.9 °F 32.9 °F 73% 30.06 in 10.0 mi SSW 5.8 mph - N/A   Clear
11:33 PM 41.2 °F 36.6 °F 32.9 °F 72% 30.05 in 10.0 mi South 6.9 mph - N/A   Clear
11:52 PM 42.4 °F 37.5 °F 32.9 °F 69% 30.05 in 10.0 mi South 8.1 mph - N/A   Clear